Regional Weather Roundup
Issued by NWS Albany, NY

Home | Current Version | Previous Version | Text Only | Print | Product List | Glossary On
Versions: 1 2 3 4 5 6 7 8 9 10 11 12 13 14 15 16 17 18 19 20 21 22 23 24 25 26 27
000
ASUS41 KALY 271710
RWRALY

NEW YORK STATE HOURLY WEATHER ROUNDUP
NATIONAL WEATHER SERVICE ALBANY NY
100 PM EDT TUE SEP 27 2016

NOTE: "FAIR" INDICATES FEW OR NO CLOUDS BELOW 12,000 FEET WITH NO
SIGNIFICANT WEATHER AND/OR NO OBSTRUCTIONS TO VISIBILITY.

NYZ032-033-038>043-046>054-057>066-NYZ062>081-082-084-271800-
EAST


CITY           SKY/WX    TMP DP  RH WIND       PRES   REMARKS
ALBANY         FAIR      69  50  50 CALM      29.91F
GLENS FALLS    FAIR      66  56  70 S5        29.90F
POUGHKEEPSIE   CLOUDY    67  57  70 W3        29.91F
NEWBURGH       PTSUNNY   68  59  73 CALM      29.93F
MONTGOMERY     FAIR      70  58  65 SW6       29.91F
WHITE PLAINS   FAIR      70  57  63 CALM      29.91F
ISLIP          CLOUDY    71  61  70 CALM      29.91F
NEW YORK CITY  PTSUNNY   72  58  61 NW3       29.91F
CENTRAL PARK   FAIR      71  59  65 CALM      29.94F
$$

NYZ005>009-017-018-044>046-055-056-271800-
CENTRAL


CITY           SKY/WX    TMP DP  RH WIND       PRES   REMARKS
FULTON         FAIR      69  46  43 SW8G17    29.86F
SYRACUSE       FAIR      69  42  37 SW12G20   29.85F
ROME           FAIR      69  47  45 SW9       29.88F
ELMIRA         FAIR      70  44  39 SW10      29.87F
BINGHAMTON     FAIR      66  41  40 W12       29.90F
MONTICELLO     PTSUNNY   64  50  59 CALM      29.95S
$$

NYZ026>034-041>043-087-271800-
NORTH


CITY           SKY/WX    TMP DP  RH WIND       PRES   REMARKS
WATERTOWN      PTSUNNY   69  48  47 SW13G20   29.84F
FORT DRUM      NOT AVBL
OGDENSBURG     PTSUNNY   66  59  78 S5        29.84F
MASSENA        PTSUNNY   66  46  48 SW10      29.85F
SARANAC LAKE   CLOUDY    62  44  51 CALM      29.87F
PLATTSBURGH    FAIR      68  56  65 SE13      29.85F
$$

NYZ001>004-010>016-019>021-085-271800-
WEST


CITY           SKY/WX    TMP DP  RH WIND       PRES   REMARKS
NIAGARA FALLS  PTSUNNY   68  46  45 SW13      29.80F
BUFFALO        FAIR      67  40  37 SW21G35   29.81F
DUNKIRK        FAIR      69  41  36 SW20G25   29.82F
JAMESTOWN      FAIR      63  39  42 SW17G23   29.87F
WELLSVILLE     FAIR      63  35  35 SW13G25   29.92F
ROCHESTER      FAIR      70  38  31 W16G28    29.83F
PENN YAN       FAIR      71  37  28 SW16G22   29.87F
$$

             KEY
       WCI = WIND CHILL INDEX
       VSB = VISIBILITY
       HX  = HEAT INDEX
$$




USA.gov is the U.S. government's official web portal to all federal, state and local government web resources and services.